Location: Lancaster
(34.6980°N, 118.1360°W)
Time: 04:59:39
(UTC-07:00)

STARS - Visible Passes

Search period start: 23 September 2018 00:00
Search period end: 03 October 2018 00:00
Orbit: 626 x 640 km, 98.3° (Epoch: 22 September)

Date Brightness Start Highest point End Pass type
(mag) Time Alt. Az. Time Alt. Az. Time Alt. Az.
23 Sep ? 20:05:52 10° N 20:10:13 56° WNW 20:14:33 10° SSW visible
24 Sep ? 20:27:24 10° N 20:31:20 32° WNW 20:35:15 10° SW visible
25 Sep ? 05:46:46 10° E 05:48:11 11° ENE 05:49:37 10° NE visible
25 Sep ? 19:12:21 10° NE 19:16:20 32° E 19:20:18 10° SSE visible
25 Sep ? 20:49:15 10° NNW 20:52:23 19° WNW 20:55:31 10° WSW visible
26 Sep ? 06:06:03 10° ESE 06:09:10 19° ENE 06:12:18 10° NNE visible
26 Sep ? 19:33:13 10° NNE 19:37:36 58° E 19:41:57 10° S visible
26 Sep ? 21:11:59 10° NW 21:13:22 11° WNW 21:14:45 10° W visible
27 Sep ? 19:54:22 10° N 19:58:49 79° WNW 20:03:13 10° SSW visible
28 Sep ? 20:15:45 10° N 20:19:58 44° WNW 20:24:09 10° SW visible
29 Sep ? 19:01:16 10° NE 19:04:50 23° E 19:08:22 10° SSE visible
29 Sep ? 20:37:23 10° NNW 20:41:03 26° WNW 20:44:42 10° SW visible
30 Sep ? 05:55:29 10° E 05:57:51 14° ENE 06:00:13 10° NNE visible
30 Sep ? 19:21:56 10° NNE 19:26:09 41° E 19:30:18 10° S visible
30 Sep ? 20:59:28 10° NNW 21:02:03 15° WNW 21:04:39 10° WSW visible
01 Oct ? 06:15:20 10° ESE 06:18:51 24° ENE 06:22:24 10° NNE visible
01 Oct ? 19:42:56 10° NNE 19:47:22 74° ESE 19:51:46 10° S visible
02 Oct ? 20:04:11 10° N 20:08:33 62° WNW 20:12:54 10° SSW visible
